Location: La Trinit�
(48.1620°N, 3.4512°W)
Time: 17:09:05
(UTC+00:00)

H-2A R/B - Pass Details

Date: 08 May 2021
Orbit: 573 x 598 km, 98.2° (Epoch: 15 June)

Event Time Altitude Azimuth Distance (km) Brightness Sun altitude
Rises 22:26:09 0° 11° (N) 2,852 7.8 -20.5°
Reaches altitude 10° 22:28:21 10° 9° (N) 1,942 6.9 -20.6°
Maximum altitude 22:32:32 66° 287° (WNW) 652 3.7 -20.9°
Enters shadow 22:33:59 38° 219° (SW) 910 4.2 -21.0°
